Flag for Netherlands Weather past 2 weeks in Zaandam, Netherlands

Now
45 °F

Sprinkles. Passing clouds.


Feels Like: 39 °F
Forecast: 38 / 46 °F
Wind: 10 mph from Southwest

Location: Amsterdam Schiphol Airport

Current Time: Mar 26, 2015 at 8:30:21 PM

Latest Report: Mar 26, 2015 at 7:55 PM


Visibility: 6 mi

Pressure: 29.65 "Hg

Humidity: 93%

Dew point: 43 °F

Location of ZaandamLocation

Historic Weather in Zaandam — Graph

°F

Zaandam temperature yesterday

Maximum temperature yesterday: 45 °F (at 1:25 PM)
Minimum temperature yesterday: 39 °F (at 11:55 PM)
Average temperature yesterday: 43 °F

Past Weeks' High & Low Weather Summary

 TemperatureHumidityPressure
High59 °F (Mar 17, 1:25 PM)100% (Mar 17, 4:55 AM)30.48 "Hg (Mar 17, 4:55 AM)
Low28 °F (Mar 23, 6:55 AM)38% (Mar 12, 2:25 PM)29.62 "Hg (Mar 26, 2:55 PM)
Average42 °F81%30.18 "Hg
* Reported Mar 11 7:25 PM — Mar 26 7:25 PM, Zaandam, Weather by CustomWeather, © 2015

Note: Actual official high and low records may vary slightly from our data, if they occured in-between our weather recording intervals... More about our weather records

Advertising

Zaandam weather history for previous 24 hours

 ConditionsComfort  
Time TempWeatherWind HumidityBarometerVisibility
7:25 PM
Thu, Mar 26
43 °FPartly cloudy.9 mph100%29.65 "Hg4 mi
6:55 PM43 °FDrizzle. Broken clouds.12 mph93%29.62 "Hg4 mi
6:25 PM41 °FDrizzle. Fog.12 mph100%29.62 "Hg2 mi
5:55 PM41 °FDrizzle. Fog.15 mph93%29.62 "Hg2 mi
5:25 PM41 °FDrizzle. Broken clouds.18 mph93%29.62 "Hg2 mi
4:55 PM41 °FDrizzle. Broken clouds.20 mph93%29.62 "Hg3 mi
4:25 PM41 °FDrizzle. Broken clouds.18 mph93%29.62 "Hg4 mi
3:55 PM41 °FDrizzle. Broken clouds.17 mph87%29.62 "Hg4 mi
3:25 PM41 °FDrizzle. Broken clouds.21 mph87%29.62 "Hg4 mi
2:55 PM41 °FDrizzle. Broken clouds.22 mph87%29.62 "HgN/A
2:25 PM41 °FLight rain. Cloudy.18 mph87%29.65 "Hg6 mi
1:55 PM43 °FLight rain. Mostly cloudy.21 mph81%29.65 "Hg6 mi
1:25 PM45 °FDrizzle. Partly sunny.22 mph71%29.65 "HgN/A
12:55 PM45 °FPassing clouds.21 mph71%29.65 "HgN/A
12:25 PM45 °FScattered clouds.17 mph71%29.68 "HgN/A
11:55 AM45 °FScattered clouds.22 mph71%29.68 "HgN/A
11:25 AM45 °FPassing clouds.21 mph71%29.68 "HgN/A
10:55 AM43 °FPassing clouds.18 mph81%29.71 "HgN/A
10:25 AM43 °FPassing clouds.14 mph81%29.71 "HgN/A
9:55 AM43 °FPassing clouds.14 mph81%29.71 "HgN/A
9:25 AM41 °FPassing clouds.12 mph93%29.74 "HgN/A
8:55 AM41 °FPassing clouds.13 mph87%29.74 "HgN/A
8:25 AM39 °FPassing clouds.13 mph93%29.74 "HgN/A
7:55 AM39 °FPassing clouds.10 mph87%29.74 "HgN/A
7:25 AM37 °FPassing clouds.8 mph93%29.74 "HgN/A
6:55 AM36 °FPassing clouds.7 mph93%29.74 "HgN/A
6:25 AM32 °FPassing clouds.8 mph93%29.77 "HgN/A
5:55 AM32 °FPassing clouds.8 mph100%29.77 "HgN/A
5:25 AM32 °FPassing clouds.7 mph100%29.77 "HgN/A
4:55 AM32 °FPassing clouds.6 mph100%29.77 "HgN/A
4:25 AM32 °FPassing clouds.7 mph93%29.77 "HgN/A
3:55 AM32 °FPassing clouds.6 mph100%29.77 "HgN/A
3:25 AM34 °FPassing clouds.6 mph93%29.77 "HgN/A
2:55 AM32 °FPassing clouds.7 mph93%29.77 "HgN/A
2:25 AM34 °FPassing clouds.5 mph87%29.77 "HgN/A
1:55 AM37 °FPassing clouds.2 mph81%29.80 "HgN/A
1:25 AM37 °FPassing clouds.5 mph81%29.80 "HgN/A
12:55 AM39 °FPassing clouds.9 mph81%29.80 "HgN/A
12:25 AM39 °FPassing clouds.12 mph81%29.80 "HgN/A
11:55 PM
Wed, Mar 25
39 °FPassing clouds.12 mph81%29.80 "HgN/A
11:25 PM41 °FPassing clouds.12 mph81%29.80 "HgN/A
10:55 PM41 °FPartly cloudy.10 mph87%29.80 "HgN/A
9:55 PM43 °FPartly cloudy.8 mph87%29.80 "HgN/A
9:25 PM43 °FPartly cloudy.9 mph87%29.80 "HgN/A
8:55 PM43 °FPartly cloudy.9 mph87%29.80 "HgN/A
8:25 PM43 °FPartly cloudy.9 mph87%29.80 "HgN/A
Weather by CustomWeather, © 2015

See weather overviewHow to use our weather pages